Craig, CO

7:17 AM MDT on May 23, 2017 (GMT -0600)
Craig-Moffat

Weather History for KCAG - August, 2013

Change the Weather History Date:

Friday, August 30, 2013

  Actual Average Record
Temperature  
Mean Temperature 71 °F 61 °F  
Max Temperature 91 °F 80 °F 91 °F (2012)
Min Temperature 50 °F 43 °F 34 °F (2004)
Degree Days  
Heating Degree Days 0 4  
Month to date heating degree days 5 49  
Since 1 June heating degree days 93 249  
Since 1 July heating degree days 5 74  
Cooling Degree Days 6 0  
Month to date cooling degree days 94 51  
Year to date cooling degree days 326 140  
Since 1 June cooling degree days 326 140  
Growing Degree Days 20 (Base 50)    
Moisture  
Dew Point 46 °F    
Average Humidity 47    
Maximum Humidity 77    
Minimum Humidity 17    
Precipitation  
Precipitation T in 0.05 in 0.17 in (2010)
Month to date precipitation 0.39 1.34  
Year to date precipitation 6.11 10.01  
Sea Level Pressure  
Sea Level Pressure 30.09 in    
Wind  
Wind Speed 4 mph (ESE)    
Max Wind Speed 22 mph    
Max Gust Speed 29 mph    
Visibility 10 miles    
Events Rain , Thunderstorm    
T = Trace of Precipitation, MM = Missing Value Source: NWS Daily Summary

Daily Weather History Graph

Daily Weather History Graph

Search for Another Location

Airport or City:

Trip Planner

Search our weather history database for the weather conditions in past years. The results will help you decide how hot, cold, wet, or windy it might be!

Date:

Astronomy

Aug. 30, 2013 Rise Set
Actual Time 6:35 AM MDT 7:44 PM MDT
Civil Twilight 6:07 AM MDT 8:12 PM MDT
Nautical Twilight 5:33 AM MDT 8:46 PM MDT
Astronomical Twilight 4:58 AM MDT 9:21 PM MDT
Moon 1:16 AM MDT (8/30) 4:03 PM MDT (8/30)
Length of Visible Light 14h 05m
Length of Day
13h 09m
Waning Crescent, 28% of the Moon is Illuminated
Aug 30
Waning Crescent
Sep 5
New
Sep 12
First Quarter
Sep 19
Full
Sep 26
Last Quarter

Hourly Weather History & Observations

Time (MDT) Temp. Dew Point Humidity Pressure Visibility Wind Dir Wind Speed Gust Speed Precip Events Conditions
12:53 AM 61.0 °F 46.0 °F 58% 30.07 in 10.0 mi Calm Calm - N/A   Mostly Cloudy
1:53 AM 59.0 °F 45.0 °F 60% 30.07 in 10.0 mi Calm Calm - N/A   Partly Cloudy
2:53 AM 57.0 °F 46.0 °F 67% 30.08 in 10.0 mi Calm Calm - N/A   Clear
3:53 AM 52.0 °F 43.0 °F 71% 30.10 in 10.0 mi Calm Calm - N/A   Clear
4:53 AM 55.0 °F 45.0 °F 69% 30.09 in 10.0 mi Calm Calm - N/A   Clear
5:53 AM 52.0 °F 45.0 °F 77% 30.10 in 10.0 mi Calm Calm - N/A   Clear
6:53 AM 50.0 °F 43.0 °F 77% 30.14 in 10.0 mi Calm Calm - N/A   Clear
7:53 AM 57.9 °F 48.0 °F 70% 30.15 in 10.0 mi Calm Calm - N/A   Clear
8:53 AM 66.9 °F 48.9 °F 52% 30.13 in 10.0 mi Calm Calm - N/A   Partly Cloudy
9:53 AM 75.0 °F 46.9 °F 37% 30.12 in 10.0 mi NE 5.8 mph - N/A   Partly Cloudy
10:53 AM 79.0 °F 48.0 °F 34% 30.09 in 10.0 mi NNE 3.5 mph - N/A   Partly Cloudy
11:53 AM 82.9 °F 46.0 °F 27% 30.08 in 10.0 mi Calm Calm - N/A   Scattered Clouds
12:53 PM 87.1 °F 39.9 °F 19% 30.05 in 10.0 mi NE 4.6 mph - N/A   Clear
1:53 PM 90.0 °F 39.0 °F 17% 30.01 in 10.0 mi Variable 4.6 mph - N/A   Clear
2:53 PM 90.0 °F 42.1 °F 19% 29.98 in 10.0 mi SSW 5.8 mph - N/A   Clear
3:53 PM 87.1 °F 39.9 °F 19% 29.99 in 10.0 mi Calm Calm - N/A   Scattered Clouds
4:21 PM 82.4 °F 48.2 °F 30% 30.21 in 10.0 mi South 21.9 mph 26.5 mph N/A Thunderstorm Thunderstorm
4:36 PM 82.4 °F 50.0 °F 32% 30.21 in 10.0 mi SSE 19.6 mph 23.0 mph N/A   Mostly Cloudy
4:53 PM 82.9 °F 46.0 °F 27% 29.99 in 10.0 mi South 16.1 mph - N/A   Mostly Cloudy
5:19 PM 84.2 °F 44.6 °F 25% 30.20 in 10.0 mi SSE 13.8 mph 25.3 mph 0.00 in Thunderstorm Mostly Cloudy
5:53 PM 81.0 °F 46.0 °F 29% 30.02 in 10.0 mi NNW 10.4 mph 17.3 mph 0.00 in Thunderstorm Overcast
6:28 PM 77.0 °F 46.4 °F 34% 30.25 in 10.0 mi North 8.1 mph 20.7 mph N/A   Mostly Cloudy
6:53 PM 77.0 °F 48.0 °F 36% 30.06 in 10.0 mi ESE 10.4 mph - 0.00 in Rain Light Rain
7:53 PM 73.0 °F 48.9 °F 42% 30.09 in 10.0 mi Calm Calm - 0.00 in   Overcast
8:12 PM 69.8 °F 51.8 °F 53% 30.29 in 10.0 mi WNW 3.5 mph - N/A Thunderstorm Overcast
8:53 PM 69.1 °F 52.0 °F 54% 30.05 in 10.0 mi SSE 17.3 mph - 0.00 in Thunderstorm Mostly Cloudy
9:15 PM 68.0 °F 51.8 °F 56% 30.27 in 10.0 mi SSE 13.8 mph - N/A   Partly Cloudy
9:53 PM 70.0 °F 48.9 °F 47% 30.03 in 10.0 mi Variable 4.6 mph - N/A   Clear
10:53 PM 66.0 °F 50.0 °F 56% 30.04 in 10.0 mi East 8.1 mph - N/A   Clear
11:53 PM 64.0 °F 50.0 °F 60% 30.03 in 10.0 mi ENE 3.5 mph - N/A   Clear